Location: Bottenau
(48.5138°N, 8.0462°E)
Time: 16:27:16
(UTC+00:00)

Cosmos 1689 Rocket - Pass Details

Date: 18 April 2021
Orbit: 346 x 360 km, 97.5° (Epoch: 07 May)

Event Time Altitude Azimuth Distance (km) Brightness Sun altitude
Rises 18:57:38 0° 7° (N) 2,194 6.1 -6.1°
Reaches altitude 10° 18:59:38 10° 1° (N) 1,340 5.1 -6.4°
Maximum altitude 19:02:22 45° 287° (WNW) 500 3.3 -6.8°
Drops below altitude 10° 19:05:03 10° 213° (SSW) 1,319 4.9 -7.2°
Sets 19:07:00 0° 207° (SSW) 2,153 5.9 -7.5°
